Location: Shepherdstown, WV
(39.4326°N, 77.8042°W)
Time: 06:34:28
(UTC-04:00)

SR - Pass Details

Date: 11 August 2021
Orbit: 581 x 874 km, 66.7° (Epoch: 24 September)

Event Time Altitude Azimuth Distance (km) Brightness Sun altitude
Rises 06:36:16 0° 267° (W) 3,399 ? 2.1°
Reaches altitude 10° 06:40:36 10° 297° (WNW) 2,412 ? 2.8°
Maximum altitude 06:42:39 12° 319° (NW) 2,246 ? 3.2°
Drops below altitude 10° 06:44:39 10° 341° (NNW) 2,350 ? 3.6°
Sets 06:48:45 0° 13° (NNE) 3,203 ? 4.4°
